TimeCST,TemperatureF,Dew PointF,Humidity,Sea Level PressureIn,VisibilityMPH,Wind Direction,Wind SpeedMPH,Gust SpeedMPH,PrecipitationIn,Events,Conditions,WindDirDegrees,DateUTC
12:02 AM,17.1,10.9,77,30.35,4.0,ENE,8.1,-,0.00,Snow,Light Snow,70,2013-12-08 06:02:00
12:53 AM,17.1,10.9,77,30.39,10.0,East,15.0,-,0.00,,Overcast,80,2013-12-08 06:53:00
1:53 AM,18.0,12.0,78,30.35,10.0,East,10.4,-,N/A,,Overcast,80,2013-12-08 07:53:00
2:53 AM,18.0,12.0,78,30.32,10.0,East,9.2,-,N/A,,Overcast,80,2013-12-08 08:53:00
3:53 AM,18.0,12.9,81,30.28,10.0,ENE,12.7,-,N/A,,Unknown,60,2013-12-08 09:53:00
4:53 AM,18.0,12.9,81,30.25,10.0,ENE,10.4,-,0.00,,Overcast,70,2013-12-08 10:53:00
5:53 AM,18.0,12.9,81,30.23,10.0,ENE,12.7,-,N/A,,Overcast,70,2013-12-08 11:53:00
6:53 AM,19.0,14.0,81,30.22,7.0,East,9.2,-,N/A,,Overcast,80,2013-12-08 12:53:00
7:00 AM,18.0,14.0,84,30.16,7.0,East,8.1,-,N/A,,Overcast,80,2013-12-08 13:00:00
7:33 AM,18.0,14.0,84,30.16,3.0,East,10.4,-,N/A,,Overcast,90,2013-12-08 13:33:00
7:53 AM,18.0,15.1,88,30.21,4.0,East,8.1,-,N/A,,Overcast,100,2013-12-08 13:53:00
8:08 AM,19.0,15.1,85,30.15,4.0,East,10.4,-,N/A,,Overcast,100,2013-12-08 14:08:00
8:21 AM,19.0,15.1,85,30.14,3.0,East,11.5,-,N/A,,Overcast,100,2013-12-08 14:21:00
8:53 AM,19.0,15.1,85,30.20,4.0,ESE,10.4,-,N/A,,Overcast,120,2013-12-08 14:53:00
9:18 AM,19.9,16.0,85,30.15,4.0,ESE,6.9,-,0.00,,Overcast,110,2013-12-08 15:18:00
9:53 AM,19.9,16.0,85,30.19,7.0,SE,6.9,-,0.00,,Overcast,140,2013-12-08 15:53:00
10:30 AM,19.9,17.1,89,30.11,5.0,ESE,8.1,-,0.00,,Overcast,110,2013-12-08 16:30:00
10:50 AM,21.2,17.6,86,30.10,2.5,ESE,6.9,-,0.00,,Overcast,110,2013-12-08 16:50:00
10:51 AM,21.0,18.0,88,30.15,2.5,ESE,5.8,-,0.00,,Overcast,120,2013-12-08 16:51:00
11:24 AM,21.0,19.0,92,30.09,1.8,SSE,5.8,-,N/A,,Overcast,150,2013-12-08 17:24:00
11:34 AM,21.0,19.9,96,30.09,2.0,South,5.8,-,N/A,,Overcast,170,2013-12-08 17:34:00
11:43 AM,21.0,19.0,92,30.08,1.8,South,5.8,-,N/A,,Overcast,170,2013-12-08 17:43:00
11:53 AM,21.9,19.9,92,30.12,1.5,South,4.6,-,N/A,,Overcast,170,2013-12-08 17:53:00
12:16 PM,21.9,21.0,96,30.05,1.8,SSE,5.8,-,N/A,,Overcast,160,2013-12-08 18:16:00
12:38 PM,21.9,19.9,92,30.03,2.5,South,5.8,-,N/A,,Overcast,180,2013-12-08 18:38:00
12:45 PM,21.9,21.0,96,30.02,3.0,South,5.8,-,N/A,,Overcast,180,2013-12-08 18:45:00
12:53 PM,23.0,21.0,92,30.06,2.5,South,6.9,-,N/A,,Overcast,170,2013-12-08 18:53:00
1:16 PM,23.0,21.9,96,29.97,4.0,SSE,4.6,-,N/A,,Overcast,150,2013-12-08 19:16:00
1:53 PM,23.0,21.0,92,30.03,8.0,SSW,5.8,-,N/A,,Overcast,210,2013-12-08 19:53:00
2:53 PM,24.1,21.0,88,30.03,8.0,SSW,5.8,-,N/A,,Overcast,200,2013-12-08 20:53:00
3:36 PM,24.1,21.9,91,29.97,1.8,South,5.8,-,N/A,,Overcast,190,2013-12-08 21:36:00
3:53 PM,24.1,21.9,91,30.03,1.8,SW,5.8,-,N/A,,Overcast,220,2013-12-08 21:53:00
4:00 PM,24.1,23.0,96,29.98,2.0,SW,6.9,-,N/A,,Overcast,220,2013-12-08 22:00:00
4:17 PM,24.1,23.0,96,29.98,2.5,SW,6.9,-,N/A,,Overcast,220,2013-12-08 22:17:00
4:29 PM,24.1,23.0,96,29.98,2.5,SSW,6.9,-,N/A,,Overcast,200,2013-12-08 22:29:00
4:39 PM,24.1,23.0,96,29.98,3.0,SW,5.8,-,N/A,,Overcast,220,2013-12-08 22:39:00
4:53 PM,24.1,23.0,96,30.03,4.0,SSW,5.8,-,N/A,,Overcast,210,2013-12-08 22:53:00
5:43 PM,24.1,23.0,96,29.98,4.0,SSW,6.9,-,0.00,,Overcast,200,2013-12-08 23:43:00
5:53 PM,24.1,23.0,96,30.04,4.0,SSW,6.9,-,0.00,,Overcast,210,2013-12-08 23:53:00
6:06 PM,24.1,23.0,96,29.99,3.0,SSW,8.1,-,0.00,Snow,Light Snow,210,2013-12-09 00:06:00
6:53 PM,24.1,23.0,96,30.06,7.0,SW,5.8,-,0.00,,Overcast,220,2013-12-09 00:53:00
7:53 PM,25.0,23.0,92,30.08,7.0,SW,8.1,-,N/A,,Overcast,220,2013-12-09 01:53:00
8:53 PM,25.0,23.0,92,30.09,6.0,WSW,9.2,-,N/A,,Overcast,240,2013-12-09 02:53:00
9:31 PM,25.0,24.1,96,30.05,4.0,WSW,10.4,-,N/A,,Overcast,250,2013-12-09 03:31:00
9:53 PM,25.0,24.1,96,30.09,5.0,WSW,9.2,-,N/A,,Overcast,240,2013-12-09 03:53:00
10:13 PM,25.0,24.1,96,30.06,4.0,SW,8.1,-,N/A,,Overcast,230,2013-12-09 04:13:00
10:53 PM,25.0,24.1,96,30.11,5.0,WSW,6.9,-,N/A,,Overcast,240,2013-12-09 04:53:00
11:03 PM,25.0,24.1,96,30.07,6.0,WSW,8.1,-,N/A,,Overcast,240,2013-12-09 05:03:00
11:34 PM,26.1,24.1,92,30.07,6.0,WSW,9.2,-,N/A,,Overcast,240,2013-12-09 05:34:00
11:53 PM,26.1,24.1,92,30.12,7.0,SW,8.1,-,N/A,,Overcast,230,2013-12-09 05:53:00